Flag for Israel Weather past 2 weeks in Ashdod, Israel

Now
81 °F

Passing clouds.


Feels Like: 81 °F
Forecast: 66 / 80 °F
Wind: 8 mph from Northwest

Location: Ben Gurion International Airport

Current Time: Oct 26, 2014 at 10:37:07 AM

Latest Report: Oct 26, 2014 at 10:20 AM


Visibility: N/A

Pressure: 29.98 "Hg

Humidity: 45%

Dew point: 57 °F

Location of AshdodLocation

Historic Weather in Ashdod — Graph

°F

Ashdod temperature yesterday

Maximum temperature yesterday: 88 °F (at 12:20 PM)
Minimum temperature yesterday: 59 °F (at 4:20 AM)
Average temperature yesterday: 73 °F

Past Weeks' High & Low Weather Summary

 TemperatureHumidityPressure
High88 °F (Oct 25, 12:20 PM)88% (Oct 16, 11:20 AM)30.12 "Hg (Oct 16, 11:20 AM)
Low59 °F (Oct 22, 4:50 AM)24% (Oct 25, 12:50 PM)29.74 "Hg (Oct 19, 1:50 PM)
Average73 °F64%29.97 "Hg
* Reported Oct 11 10:20 AM — Oct 26 9:20 AM, Ashdod, Weather by CustomWeather, © 2014

Note: Actual official high and low records may vary slightly from our data, if they occured in-between our weather recording intervals... More about our weather records

Advertising

Ashdod weather history for previous 24 hours

 ConditionsComfort  
Time TempWeatherWind HumidityBarometerVisibility
9:20 AM
Oct 26
81 °FSunny.1 mph45%30.01 "Hg10 mi
8:50 AM79 °FSunny.1 mph39%30.01 "Hg10 mi
8:20 AM77 °FSunny.2 mph39%30.01 "Hg10 mi
7:50 AM73 °FSunny.2 mph41%30.01 "Hg10 mi
7:20 AM68 °FSunny.5 mph49%29.98 "Hg10 mi
6:50 AM66 °FSunny.7 mph52%29.98 "Hg10 mi
6:20 AM63 °FSunny.6 mph59%29.98 "Hg10 mi
5:50 AM61 °FClear.5 mph63%29.98 "Hg10 mi
5:20 AM59 °FClear.7 mph68%29.98 "Hg10 mi
4:50 AM59 °FClear.8 mph63%29.95 "Hg10 mi
4:20 AM63 °FClear.1 mph56%29.95 "Hg10 mi
3:50 AM63 °FClear.No wind59%29.95 "Hg10 mi
3:20 AM63 °FClear.5 mph59%29.95 "Hg10 mi
2:50 AM63 °FClear.2 mph64%29.95 "Hg10 mi
2:20 AM63 °FClear.3 mph68%29.98 "Hg10 mi
1:50 AM64 °FClear.1 mph64%29.98 "Hg10 mi
1:20 AM66 °FClear.5 mph64%29.98 "Hg10 mi
1:50 AM66 °FClear.5 mph68%29.98 "Hg10 mi
1:20 AM66 °FClear.5 mph68%29.98 "Hg10 mi
12:50 AM66 °FClear.3 mph68%29.98 "Hg10 mi
12:20 AM68 °FClear.5 mph69%29.98 "Hg10 mi
11:50 PM
Oct 25
68 °FClear.2 mph69%29.98 "Hg10 mi
11:20 PM68 °FClear.1 mph69%29.98 "Hg10 mi
10:50 PM70 °FClear.3 mph64%29.98 "Hg10 mi
10:20 PM72 °FClear.3 mph65%29.98 "Hg10 mi
9:50 PM70 °FClear.5 mph69%29.98 "Hg10 mi
9:20 PM72 °FClear.3 mph65%29.98 "Hg10 mi
8:50 PM73 °FClear.3 mph65%29.98 "Hg10 mi
8:20 PM73 °FClear.3 mph65%29.98 "Hg10 mi
7:50 PM75 °FClear.3 mph61%29.98 "Hg10 mi
7:20 PM75 °FClear.3 mph61%29.98 "Hg10 mi
6:50 PM75 °FClear.5 mph65%29.98 "Hg10 mi
6:20 PM77 °FClear.6 mph61%29.95 "Hg10 mi
5:50 PM79 °FSunny.8 mph58%29.95 "Hg10 mi
5:20 PM79 °FSunny.9 mph54%29.95 "Hg10 mi
4:50 PM81 °FSunny.12 mph48%29.95 "Hg10 mi
4:20 PM81 °FSunny.14 mph45%29.95 "Hg10 mi
3:50 PM82 °FSunny.15 mph42%29.92 "Hg10 mi
3:20 PM82 °FSunny.16 mph42%29.92 "Hg10 mi
2:50 PM82 °FSunny.16 mph42%29.92 "Hg10 mi
2:20 PM84 °FSunny.15 mph40%29.92 "Hg10 mi
1:50 PM86 °FSunny.13 mph35%29.95 "Hg10 mi
1:20 PM86 °FPassing clouds.10 mph35%29.95 "HgN/A
12:50 PM88 °FSunny.3 mph24%29.95 "Hg10 mi
12:20 PM88 °FSunny.2 mph27%29.95 "Hg10 mi
11:50 AM86 °FSunny.3 mph29%29.98 "Hg10 mi
11:20 AM84 °FSunny.2 mph33%29.98 "Hg10 mi
10:50 AM84 °FSunny.1 mph35%30.01 "Hg10 mi
10:20 AM81 °FSunny.2 mph39%30.01 "Hg10 mi
Weather by CustomWeather, © 2014

See weather overviewHow to use our weather pages